Location: Boiro
(42.6475°N, 8.8834°W)
Time: 12:00:06
(UTC+01:00)

Altair - Pass Details

Date: 03 December 2021
Orbit: 1501 x 1683 km, 47.2° (Epoch: 21 January)

Event Time Altitude Azimuth Distance (km) Brightness Sun altitude
Rises 22:54:01 0° 295° (WNW) 4,666 10.6 -52.5°
Reaches altitude 10° 22:57:04 10° 293° (WNW) 3,670 9.9 -53.0°
Enters shadow 23:00:20 25° 289° (WNW) 2,656 9.0 -53.6°
